Weather History for KOLU - May, 2013

Change the Weather History Date:

Saturday, May 25, 2013

  Actual Average Record
Temperature  
Mean Temperature 68 °F -  
Max Temperature 78 °F 75 °F 100 °F (1967)
Min Temperature 57 °F 53 °F 37 °F (2002)
Cooling Degree Days 2    
Growing Degree Days 18 (Base 50)    
Moisture  
Dew Point 59 °F    
Average Humidity 73    
Maximum Humidity 88    
Minimum Humidity 56    
Precipitation  
Precipitation 1.17 in - - ()
Sea Level Pressure  
Sea Level Pressure 30.01 in    
Wind  
Wind Speed 11 mph (ESE)    
Max Wind Speed 24 mph    
Max Gust Speed 41 mph    
Visibility 10 miles    
Events Thunderstorm    
Averages and records for this station are not official NWS values.
T = Trace of Precipitation, MM = Missing Value Source: NWS Daily Summary

Daily Weather History Graph

Daily Weather History Graph

Search for Another Location

Airport or City:

Trip Planner

Search our weather history database for the weather conditions in past years. The results will help you decide how hot, cold, wet, or windy it might be!

Date:

Astronomy

May. 25, 2013 Rise Set
Actual Time 6:01 AM CDT 8:51 PM CDT
Civil Twilight 5:29 AM CDT 9:23 PM CDT
Nautical Twilight 4:48 AM CDT 10:05 PM CDT
Astronomical Twilight 4:01 AM CDT 10:52 PM CDT
Moon 9:40 PM CDT (5/25) 6:30 AM CDT (5/25)
Length of Visible Light 15h 54m
Length of Day
14h 49m
Full, 100% of the Moon is Illuminated
May 25
Full
May 31
Last Quarter
Jun 8
New
Jun 16
First Quarter
Jun 23
Full

Hourly Weather History & Observations

Time (CDT) Temp. Dew Point Humidity Pressure Visibility Wind Dir Wind Speed Gust Speed Precip Events Conditions
12:15 AM 66.2 °F 50.0 °F 56% 30.08 in 10.0 mi ESE 11.5 mph - N/A   Overcast
12:35 AM 66.2 °F 50.0 °F 56% 30.06 in 10.0 mi ESE 15.0 mph 20.7 mph N/A   Overcast
12:55 AM 66.2 °F 50.0 °F 56% 30.05 in 10.0 mi ESE 12.7 mph 19.6 mph N/A   Overcast
1:15 AM 66.2 °F 50.0 °F 56% 30.05 in 10.0 mi ESE 12.7 mph 18.4 mph N/A   Overcast
1:35 AM 64.4 °F 50.0 °F 59% 30.04 in 10.0 mi ESE 12.7 mph 18.4 mph N/A   Overcast
1:55 AM 64.4 °F 50.0 °F 59% 30.02 in 10.0 mi ESE 15.0 mph 19.6 mph N/A   Overcast
2:15 AM 62.6 °F 51.8 °F 68% 30.04 in 10.0 mi SE 10.4 mph 20.7 mph 0.01 in Thunderstorm Thunderstorm
2:35 AM 60.8 °F 53.6 °F 77% 30.08 in 6.0 mi SSE 16.1 mph - 0.34 in Thunderstorm Thunderstorm
2:55 AM 60.8 °F 53.6 °F 77% 30.06 in 10.0 mi SE 8.1 mph - 0.37 in Thunderstorm Thunderstorm
3:15 AM 60.8 °F 53.6 °F 77% 30.06 in 8.0 mi ESE 3.5 mph - 0.23 in Thunderstorm Thunderstorm
3:35 AM 59.0 °F 53.6 °F 82% 30.07 in 9.0 mi East 8.1 mph - 0.28 in Thunderstorm Overcast
3:55 AM 59.0 °F 53.6 °F 82% 30.03 in 10.0 mi East 5.8 mph - 0.34 in Thunderstorm Overcast
4:15 AM 59.0 °F 53.6 °F 82% 30.07 in 10.0 mi Calm Calm - 0.04 in Thunderstorm Thunderstorm
4:35 AM 59.0 °F 53.6 °F 82% 30.06 in 9.0 mi East 6.9 mph - 0.11 in Thunderstorm Mostly Cloudy
4:55 AM 57.2 °F 53.6 °F 88% 30.07 in 7.0 mi SE 3.5 mph - 0.15 in Thunderstorm Overcast
5:15 AM 57.2 °F 53.6 °F 88% 30.06 in 7.0 mi Calm Calm - 0.06 in   Mostly Cloudy
5:35 AM 57.2 °F 53.6 °F 88% 30.03 in 8.0 mi ENE 5.8 mph - 0.11 in   Mostly Cloudy
5:55 AM 57.2 °F 53.6 °F 88% 30.05 in 8.0 mi SSE 8.1 mph - 0.15 in   Mostly Cloudy
6:15 AM 57.2 °F 53.6 °F 88% 30.04 in 7.0 mi SSE 15.0 mph - 0.04 in   Overcast
6:35 AM 57.2 °F 53.6 °F 88% 30.06 in 9.0 mi South 9.2 mph - 0.04 in   Mostly Cloudy
6:55 AM 59.0 °F 53.6 °F 82% 30.08 in 10.0 mi West 6.9 mph - 0.05 in   Mostly Cloudy
7:15 AM 59.0 °F 53.6 °F 82% 30.09 in 9.0 mi WSW 10.4 mph - 0.01 in   Overcast
7:35 AM 60.8 °F 55.4 °F 82% 30.08 in 9.0 mi WSW 9.2 mph - 0.05 in   Overcast
7:55 AM 60.8 °F 55.4 °F 82% 30.08 in 8.0 mi South 13.8 mph - 0.05 in   Overcast
8:15 AM 60.8 °F 55.4 °F 82% 30.05 in 10.0 mi South 21.9 mph - 0.04 in   Overcast
8:35 AM 60.8 °F 55.4 °F 82% 29.90 in 10.0 mi SSE 24.2 mph 41.4 mph 0.06 in   Mostly Cloudy
8:55 AM 64.4 °F 57.2 °F 77% 29.97 in 10.0 mi SSE 12.7 mph 20.7 mph 0.06 in   Clear
9:15 AM 64.4 °F 57.2 °F 77% 30.00 in 10.0 mi North 4.6 mph - N/A   Clear
9:35 AM 66.2 °F 57.2 °F 73% 30.01 in 10.0 mi NE 9.2 mph - N/A   Clear
9:55 AM 68.0 °F 59.0 °F 73% 30.00 in 10.0 mi ENE 6.9 mph - N/A   Clear
10:15 AM 69.8 °F 59.0 °F 68% 30.00 in 10.0 mi East 6.9 mph - N/A   Clear
10:35 AM 69.8 °F 59.0 °F 68% 30.01 in 10.0 mi East 8.1 mph - N/A   Clear
10:55 AM 71.6 °F 59.0 °F 64% 30.02 in 10.0 mi ESE 9.2 mph - N/A   Clear
11:15 AM 71.6 °F 60.8 °F 69% 30.02 in 10.0 mi SE 8.1 mph - N/A   Clear
11:35 AM 73.4 °F 60.8 °F 65% 30.02 in 10.0 mi ESE 9.2 mph - N/A   Clear
11:55 AM 73.4 °F 60.8 °F 65% 30.02 in 10.0 mi ESE 10.4 mph - N/A   Clear
12:15 PM 73.4 °F 62.6 °F 69% 30.02 in 10.0 mi SE 11.5 mph - N/A   Clear
12:35 PM 75.2 °F 62.6 °F 65% 30.02 in 10.0 mi SE 10.4 mph 18.4 mph N/A   Scattered Clouds
12:55 PM 75.2 °F 62.6 °F 65% 30.02 in 10.0 mi SE 12.7 mph 16.1 mph N/A   Overcast
1:15 PM 75.2 °F 62.6 °F 65% 30.02 in 10.0 mi SE 10.4 mph - N/A   Overcast
1:35 PM 75.2 °F 62.6 °F 65% 30.02 in 10.0 mi SE 12.7 mph - N/A   Scattered Clouds
1:55 PM 75.2 °F 62.6 °F 65% 30.01 in 10.0 mi SE 10.4 mph 17.3 mph N/A   Scattered Clouds
2:15 PM 75.2 °F 62.6 °F 65% 30.01 in 10.0 mi SE 11.5 mph - N/A   Overcast
2:35 PM 75.2 °F 62.6 °F 65% 30.00 in 10.0 mi SE 10.4 mph - N/A   Overcast
2:55 PM 75.2 °F 62.6 °F 65% 30.00 in 10.0 mi ESE 13.8 mph - N/A   Overcast
3:15 PM 73.4 °F 62.6 °F 69% 29.99 in 10.0 mi ESE 9.2 mph - N/A   Overcast
3:35 PM 75.2 °F 64.4 °F 69% 29.99 in 10.0 mi ESE 11.5 mph 17.3 mph N/A   Overcast
3:55 PM 77.0 °F 66.2 °F 69% 29.98 in 10.0 mi SE 11.5 mph 17.3 mph N/A   Overcast
4:15 PM 77.0 °F 66.2 °F 69% 29.98 in 10.0 mi ESE 11.5 mph 18.4 mph N/A   Overcast
4:35 PM 75.2 °F 66.2 °F 73% 29.98 in 10.0 mi East 13.8 mph - N/A   Overcast
4:55 PM 75.2 °F 66.2 °F 73% 29.97 in 10.0 mi East 12.7 mph - N/A   Overcast
5:15 PM 75.2 °F 66.2 °F 73% 29.97 in 10.0 mi East 15.0 mph 19.6 mph N/A   Overcast
5:35 PM 75.2 °F 66.2 °F 73% 29.97 in 10.0 mi ESE 12.7 mph 16.1 mph N/A   Mostly Cloudy
5:55 PM 75.2 °F 66.2 °F 73% 29.96 in 10.0 mi East 12.7 mph - N/A   Mostly Cloudy
6:15 PM 75.2 °F 66.2 °F 73% 29.96 in 10.0 mi ESE 10.4 mph 18.4 mph N/A   Mostly Cloudy
6:35 PM 77.0 °F 66.2 °F 69% 29.95 in 10.0 mi ESE 11.5 mph - N/A   Scattered Clouds
6:55 PM 78.8 °F 66.2 °F 65% 29.94 in 10.0 mi ESE 10.4 mph - N/A   Mostly Cloudy
7:15 PM 78.8 °F 66.2 °F 65% 29.94 in 10.0 mi SE 9.2 mph - N/A   Mostly Cloudy
7:35 PM 77.0 °F 64.4 °F 65% 29.93 in 10.0 mi SE 11.5 mph - N/A   Mostly Cloudy
7:55 PM 77.0 °F 64.4 °F 65% 29.93 in 10.0 mi SE 11.5 mph 17.3 mph N/A   Overcast
8:15 PM 75.2 °F 64.4 °F 69% 29.94 in 10.0 mi ESE 9.2 mph - N/A   Overcast
8:35 PM 73.4 °F 64.4 °F 73% 29.95 in 10.0 mi East 8.1 mph - N/A   Overcast
8:55 PM 73.4 °F 64.4 °F 73% 29.94 in 10.0 mi East 10.4 mph - N/A   Overcast
9:15 PM 71.6 °F 64.4 °F 78% 29.95 in 10.0 mi East 12.7 mph - N/A   Mostly Cloudy
9:35 PM 69.8 °F 64.4 °F 83% 29.96 in 10.0 mi East 11.5 mph - N/A   Mostly Cloudy
9:55 PM 71.6 °F 64.4 °F 78% 29.97 in 10.0 mi East 12.7 mph - N/A   Overcast
10:15 PM 71.6 °F 64.4 °F 78% 29.98 in 10.0 mi East 12.7 mph - N/A   Overcast
10:35 PM 71.6 °F 64.4 °F 78% 29.99 in 10.0 mi East 10.4 mph - N/A   Overcast
10:55 PM 69.8 °F 64.4 °F 83% 29.99 in 10.0 mi East 12.7 mph - N/A   Overcast
11:15 PM 69.8 °F 62.6 °F 78% 29.99 in 10.0 mi East 11.5 mph - N/A   Overcast
11:35 PM 68.0 °F 62.6 °F 83% 29.98 in 10.0 mi East 12.7 mph - N/A   Mostly Cloudy
11:55 PM 66.2 °F 62.6 °F 88% 29.97 in 10.0 mi East 13.8 mph - N/A   Scattered Clouds